Tracking 30995 objects as of 5-Jul-2025
HD Live streaming from Space Station
objects crossing your sky now

STARLINK-31299

Track STARLINK-31299 now!
10-day predictions
STARLINK-31299 is classified as:


NORAD ID: 59080
Int'l Code: 2024-041G
Perigee: 489.2 km
Apogee: 491.2 km
Inclination: 43.0 °
Period: 94.3 minutes
Semi major axis: 6861 km
RCS: Unknown
Launch date: February 29, 2024
Source: United States (US)
Launch site: AIR FORCE EASTERN TEST RANGE (AFETR)
Your satellite tracking list
Your tracking list is empty




NASA's NSSDC Master Catalog

Two Line Element Set (TLE):
1 59080U 24041G   25186.01085667  .00000007  00000-0  97652-5 0  9999
2 59080  43.0020 171.6265 0001408 288.4410  71.6288 15.27572846 77554
Source of the keplerian elements: AFSPC